Temperature
29 31 31 31 31 31 31 31 31 31 31 30 30 30 29 28 28 27 27 26 25 24 23 22 22 21 21 20 20 20 20 19 19 19 19 18 18 18 18 18 18 18 18 17
30 30 31 31 31 31 31 31 31 30 30 30 30 29 30 29 28 27 27 26 25 25 23 22 22 21 21 20 20 20 20 19 19 19 19 18 18 18 18 18 18 18 17 17
30 31 31 31 31 30 31 31 31 30 30 30 30 30 29 29 28 27 27 26 26 25 24 23 22 22 21 21 20 20 20 19 19 19 19 18 18 18 18 18 18 17 17 17
31 31 30 31 31 31 30 31 31 30 30 31 30 30 29 29 29 28 27 27 26 25 25 24 23 22 21 21 20 20 20 20 19 19 19 19 19 18 18 18 17 17 17 17
30 30 30 30 31 31 30 31 31 31 31 31 31 30 30 30 29 29 29 27 27 26 25 24 23 22 22 21 20 20 20 20 20 19 19 19 18 18 18 17 17 17 17 17
31 31 31 31 31 31 30 30 30 31 31 30 30 30 30 30 29 29 29 27 26 25 24 24 23 22 21 21 20 20 19 20 19 19 19 19 18 18 18 17 17 17 17 17
30 31 31 31 30 30 31 31 30 30 30 30 30 30 30 30 29 29 28 27 26 25 24 23 23 22 21 21 20 20 19 19 19 19 19 18 18 18 17 17 17 17 17 17
29 30 31 31 31 31 31 31 30 29 29 30 30 30 30 29 29 28 27 27 26 25 24 23 22 22 21 20 20 19 19 19 19 19 18 18 18 18 17 17 17 17 17 17
30 30 31 31 31 31 31 31 32 31 30 30 30 30 30 29 28 28 27 26 25 24 24 23 22 21 21 20 20 19 19 19 19 18 18 18 18 18 17 17 17 17 16 16
31 29 30 30 30 30 31 31 31 31 29 29 30 30 30 29 28 28 27 26 25 24 24 23 22 21 21 20 19 19 19 19 19 18 18 18 18 18 17 17 17 16 16 16
31 30 30 30 30 30 30 30 30 31 31 29 29 30 30 29 29 28 27 26 25 24 23 23 22 21 20 20 20 19 19 18 18 18 18 18 18 17 17 17 17 16 16 16
30 30 30 30 30 30 31 31 30 30 29 30 30 29 29 29 29 28 27 25 24 23 23 22 21 21 20 20 20 19 19 18 18 18 18 18 17 17 17 17 16 16 16 16
29 29 28 29 29 29 30 30 31 31 31 30 30 29 28 28 28 27 26 25 23 23 22 21 21 20 20 19 19 19 19 18 18 18 18 17 17 17 17 17 16 16 16 16
28 29 29 29 29 30 29 29 30 30 30 30 30 29 29 28 28 27 25 24 23 22 22 21 21 20 20 19 19 18 18 18 18 18 17 17 17 17 17 16 16 16 16 16
29 29 29 29 30 30 30 29 29 30 30 30 30 29 29 28 27 26 25 23 23 22 21 21 20 19 19 19 18 18 18 18 18 17 17 17 17 16 16 16 16 16 15 15
28 28 28 28 29 29 29 29 29 29 29 29 29 29 29 27 26 25 24 23 23 22 21 20 20 19 18 18 18 18 18 17 17 17 17 17 17 16 16 16 16 15 15 15
27 27 27 28 29 28 28 29 29 29 29 29 29 28 28 26 25 24 23 23 22 21 21 20 19 19 18 18 18 18 17 17 17 17 17 17 16 16 16 16 15 15 15 15
26 26 27 28 27 26 28 29 29 28 28 29 28 28 27 26 24 23 22 22 21 20 20 19 19 18 18 18 17 17 17 17 17 17 17 16 16 16 16 15 15 15 15 15
26 25 27 27 27 27 27 27 28 28 27 28 28 27 26 24 24 22 21 20 20 19 19 18 18 18 18 17 17 17 17 17 16 16 16 16 16 16 15 15 15 15 14 14
25 25 26 26 26 26 27 27 26 27 26 26 26 26 25 24 26 24 20 20 19 18 18 18 17 17 17 17 17 16 16 16 16 16 16 16 16 15 15 15 15 14 14 14
24 24 25 26 26 26 26 26 26 26 25 25 25 24 24 24 24 21 19 19 18 18 17 17 17 17 16 16 16 16 16 16 16 15 15 15 15 15 15 14 14 14 14 14
25 25 24 25 25 25 25 25 25 24 23 23 23 23 23 21 20 19 18 18 17 17 17 17 16 16 16 16 16 15 15 15 15 15 15 15 15 14 14 14 14 14 13 13
24 24 25 25 24 23 23 23 22 22 22 22 22 22 21 20 19 18 18 17 17 16 16 16 16 15 15 15 15 15 15 15 15 15 14 14 14 14 14 14 14 13 13 13
22 21 23 23 23 22 22 21 21 21 21 21 21 20 20 19 19 18 17 17 16 16 16 16 15 15 15 15 14 14 14 14 14 14 14 14 13 13 13 13 13 13 13 13
22 21 22 22 22 21 21 20 20 20 20 20 19 19 19 19 18 18 17 16 16 16 15 15 15 15 15 14 14 14 14 14 14 14 14 13 13 13 13 13 13 13 12 12
22 21 22 22 21 21 21 19 19 19 19 19 19 18 18 18 18 18 17 16 16 15 15 15 14 14 14 14 14 14 14 13 13 13 13 13 13 13 13 12 12 12 12 12
Wind_Speed
6 7 7 5 4 4 4 4 3 1 0 2 2 2 3 5 5 5 5 5 5 5 6 6 6 5 5 5 5 4 4 4 3 2 2 2 2 2 2 2 3 3 3 3
8 9 6 4 4 5 6 5 2 1 1 2 2 2 3 4 5 5 5 5 6 6 7 7 6 6 5 5 5 5 4 4 3 3 2 2 2 1 2 2 3 3 3 3
11 4 3 6 7 7 6 5 3 2 2 4 3 4 4 5 5 5 5 5 6 6 7 8 8 7 6 6 5 5 5 4 4 4 3 3 3 1 2 2 2 3 3 3
9 7 6 8 7 8 6 3 4 4 5 3 4 3 3 5 6 6 6 6 6 7 7 7 8 8 7 7 6 6 6 5 5 4 3 3 2 2 2 1 3 3 3 3
8 6 7 8 6 6 4 2 5 6 6 5 5 4 2 5 4 5 5 5 5 6 7 7 8 8 7 7 7 7 6 6 5 4 4 3 2 2 2 2 3 2 3 3
8 6 6 6 4 4 4 4 5 6 7 6 3 5 1 2 2 2 3 4 5 6 6 6 7 8 7 7 7 7 7 6 5 5 4 4 3 2 2 2 2 1 2 2
10 10 7 6 6 7 8 7 5 5 5 3 2 4 1 2 1 1 2 3 4 5 6 7 8 8 8 8 8 7 7 7 6 5 4 4 4 3 3 1 2 1 1 1
10 10 9 8 9 7 9 9 7 5 5 2 3 3 1 2 2 2 2 3 4 5 6 6 7 8 8 8 8 8 8 7 7 6 5 4 4 2 2 1 0 0 1 1
8 7 6 6 6 7 8 10 9 8 8 6 3 2 3 4 3 3 3 4 4 4 5 6 7 7 8 8 8 8 8 7 6 6 5 4 3 2 2 2 1 0 0 0
6 6 6 6 6 6 7 7 7 8 6 7 5 5 3 4 4 4 4 4 4 5 5 5 6 7 7 7 8 8 7 7 6 6 5 4 4 3 2 1 1 1 1 1
9 8 7 8 9 9 7 8 7 8 8 8 6 2 2 3 3 4 4 4 5 5 6 6 6 7 6 7 7 8 7 7 6 6 5 4 4 3 3 2 1 0 0 0
9 8 9 9 5 5 8 9 10 8 8 8 8 1 4 3 3 4 4 5 5 5 5 6 6 6 6 6 6 6 7 7 6 5 5 5 4 3 3 2 1 1 1 1
7 8 9 9 9 8 8 9 10 10 8 9 9 2 5 4 3 4 5 5 6 6 5 6 6 6 6 6 5 5 5 6 6 6 5 4 4 3 3 2 1 1 1 1
6 11 12 12 7 8 9 9 10 11 9 9 8 4 3 4 4 4 5 5 6 6 6 5 5 5 6 5 5 5 5 5 5 5 5 4 3 3 2 2 2 1 1 1
7 11 11 10 7 7 9 9 11 12 11 10 7 6 3 3 3 3 4 5 5 6 5 5 5 5 5 6 5 5 5 5 5 5 5 4 3 3 2 2 2 2 1 1
5 7 9 11 10 9 10 10 11 11 10 10 8 6 2 3 3 4 4 5 5 5 5 5 5 5 5 5 6 6 5 5 5 5 4 4 3 3 2 2 2 2 1 0
6 7 9 11 10 11 13 10 10 10 9 9 9 6 5 5 5 4 4 4 4 4 5 5 5 5 5 5 5 5 5 5 5 5 4 4 3 2 2 2 2 1 1 1
7 8 8 9 9 14 6 3 6 8 7 7 6 4 5 5 5 4 3 3 3 3 4 4 4 4 5 5 5 5 5 5 5 4 4 4 3 3 3 2 2 1 1 1
8 8 8 9 13 11 5 4 6 8 7 6 6 5 5 6 6 5 3 3 3 3 3 4 4 5 5 5 5 5 5 5 5 4 3 3 3 3 2 2 1 1 1 0
7 8 9 10 13 12 5 3 3 6 8 4 5 6 7 7 7 4 5 4 4 4 4 4 5 5 5 5 5 5 5 5 4 3 3 2 2 2 2 1 1 1 1 0
8 8 12 12 12 8 1 2 5 8 3 1 3 5 6 6 1 5 7 6 5 5 5 6 6 5 5 5 5 5 4 4 3 3 3 3 2 2 2 2 1 1 1 1
8 8 9 10 12 8 1 4 4 1 2 1 1 3 4 4 5 6 7 7 6 6 6 6 6 6 5 5 5 5 4 3 3 3 3 3 2 1 2 2 1 1 0 1
6 5 4 5 3 2 1 0 1 2 1 1 2 3 5 6 6 6 7 7 7 6 6 6 6 6 5 5 5 4 3 3 3 2 2 2 2 2 1 1 1 1 1 1
4 2 3 3 3 1 0 1 1 2 1 0 2 3 5 5 6 7 6 7 7 6 6 6 6 6 5 5 4 4 3 3 3 3 2 2 2 2 1 0 0 0 1 1
3 3 4 5 3 2 1 1 1 1 1 2 3 4 4 5 6 7 6 6 6 6 6 6 6 6 5 5 4 4 3 3 3 3 2 2 2 2 1 1 0 0 1 1
5 5 5 4 2 2 1 0 1 2 3 3 4 4 4 5 6 6 6 6 6 6 6 6 6 5 5 4 4 3 3 3 3 2 2 2 2 2 2 2 2 2 2 2
Wind_Direction
199 226 231 238 254 282 290 291 298 337 143 224 229 232 194 177 187 188 182 175 181 183 173 167 164 159 155 155 152 152 151 148 155 154 151 132 105 84 82 82 65 48 37 39
211 230 242 249 248 247 259 270 266 186 170 240 249 249 202 191 200 204 198 193 193 188 175 171 172 167 164 160 158 156 158 153 160 144 138 124 100 84 74 60 64 46 41 33
230 242 226 232 231 238 246 261 271 266 214 211 243 222 189 187 194 198 206 202 197 193 185 178 175 173 173 168 167 160 157 154 155 151 148 135 136 133 98 75 67 46 44 44
236 241 238 237 235 244 246 252 251 238 239 243 252 271 173 182 189 194 203 206 203 194 189 184 177 175 175 172 165 163 159 155 155 158 151 145 130 104 76 67 65 58 56 51
218 218 231 237 242 247 258 233 237 243 254 260 244 273 168 180 201 199 204 206 203 195 187 185 181 174 172 169 164 160 156 152 152 151 151 162 146 125 106 91 83 59 63 53
239 223 239 245 230 218 192 201 212 229 244 251 249 265 226 167 213 203 197 199 197 187 182 182 176 170 171 167 164 160 155 152 154 157 153 154 141 130 112 102 94 85 78 60
223 221 215 222 216 201 219 234 236 231 231 246 169 254 262 83 195 215 199 183 181 175 176 176 172 171 172 170 168 164 157 157 157 155 153 150 150 157 155 158 119 55 49 53
218 213 203 211 228 228 225 245 258 272 272 247 194 252 104 109 138 159 165 150 159 164 168 172 169 169 170 168 169 166 160 158 158 159 155 150 164 180 156 144 154 123 2 27
225 216 187 208 224 244 230 239 263 270 271 270 227 201 171 153 151 151 150 144 147 151 158 163 162 165 165 166 166 167 161 160 161 160 158 153 162 162 128 143 200 197 347 296
234 230 205 196 207 226 255 253 245 251 260 263 234 223 198 172 175 167 162 151 141 147 148 147 148 152 159 162 159 163 162 162 165 166 167 153 160 161 161 165 110 354 329 337
235 229 207 199 216 218 208 223 239 253 260 267 265 231 111 167 176 173 163 152 143 148 148 143 144 147 148 153 157 160 162 163 165 163 155 148 153 157 162 160 173 180 288 316
223 235 229 216 206 242 234 231 230 243 249 256 270 255 98 123 154 159 151 141 139 142 137 135 139 145 149 151 152 156 162 163 161 156 154 152 150 156 166 162 176 173 185 242
209 232 228 217 203 203 223 229 237 250 253 252 258 220 125 134 138 140 146 144 142 143 139 135 138 143 148 150 149 147 153 155 154 151 153 148 153 156 164 167 171 170 184 259
230 235 240 242 233 207 215 221 231 242 247 250 255 246 172 157 154 147 148 152 152 152 150 143 142 143 143 145 144 142 148 148 147 151 152 150 152 156 168 169 167 171 192 233
225 237 239 250 253 242 232 230 228 239 255 263 261 252 225 175 164 160 153 157 162 160 161 154 146 139 145 146 146 148 148 146 146 154 158 157 158 165 177 175 171 176 207 231
230 236 234 239 235 234 238 234 233 238 245 250 252 250 205 165 162 160 167 174 177 173 173 165 154 150 156 153 155 154 151 147 152 160 158 153 157 166 179 187 186 181 183 255
218 225 231 233 223 229 233 235 236 236 240 243 250 241 182 182 182 184 183 179 177 175 174 169 167 165 161 158 158 158 152 151 156 161 157 152 159 166 179 181 170 175 190 211
227 232 236 237 222 238 242 222 235 237 241 248 247 218 195 186 167 170 179 177 166 161 163 164 163 156 153 150 149 150 151 153 154 152 153 154 166 176 181 179 173 189 230 248
224 224 239 238 237 238 220 217 228 234 239 241 236 205 184 161 161 157 156 159 157 153 157 157 153 146 141 144 147 148 153 152 151 149 150 154 164 163 164 167 166 185 230 272
204 220 237 238 245 246 233 195 230 237 232 221 225 208 194 191 217 184 154 144 130 125 129 137 137 134 134 140 141 144 147 149 151 151 153 156 154 149 137 120 118 101 113 95
202 215 230 237 244 248 278 205 200 228 245 166 214 211 205 211 258 118 134 130 119 121 123 126 126 122 124 135 140 141 136 146 147 141 142 141 137 139 123 111 112 111 84 74
224 222 225 235 241 241 114 191 220 287 21 22 200 194 181 140 123 129 135 137 132 127 128 128 124 117 116 124 132 132 131 122 127 135 138 137 138 130 117 117 116 99 97 151
236 255 247 243 242 74 115 89 28 338 300 231 186 165 156 151 147 142 142 144 141 137 136 134 129 124 117 117 124 125 116 113 120 123 120 119 122 119 126 146 145 165 197 296
209 239 239 232 212 199 237 336 330 324 318 213 156 151 157 154 152 149 148 148 146 145 145 142 137 131 123 117 119 117 114 119 129 129 131 140 149 147 128 127 92 3 349 332
247 212 223 229 227 227 190 17 4 80 107 127 137 144 150 148 151 152 150 150 149 147 146 143 140 138 136 132 128 125 117 123 131 134 147 166 172 157 160 173 353 254 353 348
225 229 236 240 213 238 224 59 92 109 126 132 138 141 142 145 147 152 150 148 149 148 145 144 145 145 143 140 135 132 137 143 155 166 177 184 185 182 200 195 185 148 186 142
Height
1494 1492 1490 1487 1487 1488 1489 1491 1492 1490 1489 1490 1492 1493 1494 1497 1500 1501 1502 1505 1507 1510 1512 1513 1515 1515 1516 1517 1517 1517 1518 1519 1519 1520 1522 1522 1523 1523 1523 1522 1521 1521 1520 1519
1492 1490 1486 1487 1488 1489 1489 1491 1490 1489 1489 1490 1491 1491 1491 1495 1498 1499 1501 1504 1506 1508 1510 1512 1514 1515 1516 1516 1517 1517 1518 1519 1520 1521 1521 1522 1523 1523 1523 1523 1522 1522 1521 1520
1489 1485 1485 1487 1488 1490 1488 1489 1489 1490 1489 1488 1491 1492 1491 1492 1496 1499 1500 1502 1504 1506 1508 1510 1512 1514 1515 1516 1516 1518 1518 1519 1520 1521 1522 1523 1523 1524 1524 1523 1523 1522 1521 1520
1485 1483 1486 1486 1486 1487 1490 1485 1486 1488 1490 1489 1490 1498 1490 1489 1492 1495 1497 1499 1501 1504 1506 1508 1510 1512 1513 1515 1516 1517 1518 1519 1520 1520 1522 1523 1523 1524 1524 1524 1523 1523 1522 1521
1483 1483 1485 1486 1484 1484 1486 1483 1484 1485 1487 1489 1487 1492 1489 1486 1490 1490 1493 1496 1499 1502 1504 1506 1508 1510 1512 1514 1516 1517 1517 1518 1519 1520 1521 1522 1523 1524 1524 1524 1523 1523 1523 1522
1480 1481 1482 1481 1482 1483 1483 1485 1485 1484 1483 1497 1490 1493 1493 1484 1487 1488 1491 1494 1497 1500 1502 1505 1507 1509 1511 1513 1515 1516 1517 1518 1519 1520 1521 1521 1522 1523 1524 1524 1524 1524 1524 1523
1483 1479 1479 1481 1483 1483 1483 1487 1496 1500 1498 1495 1485 1490 1490 1483 1484 1487 1490 1493 1496 1499 1501 1503 1506 1508 1510 1511 1513 1515 1516 1517 1518 1519 1520 1521 1522 1523 1523 1524 1524 1525 1525 1524
1485 1485 1477 1477 1479 1480 1479 1481 1497 1507 1503 1492 1487 1490 1484 1482 1485 1488 1490 1493 1495 1497 1499 1502 1504 1506 1508 1510 1512 1514 1515 1516 1517 1519 1520 1520 1521 1523 1524 1523 1524 1524 1524 1523
1478 1481 1474 1475 1476 1477 1479 1479 1473 1482 1486 1492 1486 1484 1481 1482 1484 1487 1490 1492 1494 1496 1498 1501 1503 1505 1507 1509 1510 1512 1513 1515 1516 1518 1519 1520 1521 1522 1522 1522 1523 1523 1522 1522
1471 1481 1474 1474 1477 1477 1475 1473 1478 1483 1500 1502 1491 1486 1483 1482 1483 1485 1488 1491 1494 1496 1498 1500 1502 1504 1506 1508 1509 1511 1512 1513 1515 1517 1518 1519 1520 1520 1521 1522 1522 1521 1521 1520
1469 1477 1477 1475 1477 1476 1479 1479 1478 1478 1480 1494 1498 1489 1473 1478 1480 1483 1486 1490 1493 1495 1497 1499 1502 1503 1505 1507 1509 1510 1511 1512 1514 1516 1517 1518 1519 1520 1520 1521 1521 1521 1520 1519
1470 1471 1476 1473 1470 1471 1471 1472 1475 1485 1487 1482 1486 1487 1473 1476 1479 1483 1486 1490 1493 1495 1497 1499 1501 1503 1505 1506 1508 1509 1510 1512 1513 1514 1515 1516 1517 1518 1519 1520 1520 1519 1519 1518
1470 1473 1483 1481 1477 1474 1473 1471 1470 1469 1473 1479 1484 1485 1476 1477 1480 1483 1486 1490 1493 1495 1497 1499 1500 1502 1504 1505 1507 1508 1509 1511 1512 1513 1515 1516 1517 1517 1518 1518 1518 1518 1518 1517
1471 1469 1474 1479 1472 1468 1473 1472 1470 1470 1477 1478 1476 1477 1474 1477 1480 1483 1487 1490 1492 1495 1497 1498 1500 1501 1503 1504 1505 1507 1508 1510 1511 1512 1514 1515 1516 1516 1517 1517 1517 1517 1516 1516
1468 1469 1467 1465 1463 1464 1467 1469 1469 1471 1470 1473 1472 1472 1474 1476 1480 1483 1487 1490 1492 1494 1496 1498 1499 1500 1502 1503 1504 1506 1507 1508 1510 1511 1512 1513 1514 1515 1515 1516 1516 1515 1515 1515
1468 1470 1469 1469 1464 1465 1468 1466 1466 1468 1467 1468 1470 1472 1472 1477 1481 1484 1487 1489 1491 1493 1495 1496 1498 1499 1500 1501 1503 1504 1505 1507 1508 1510 1511 1512 1513 1513 1513 1514 1514 1514 1514 1513
1467 1470 1473 1470 1464 1467 1471 1465 1464 1466 1465 1466 1470 1471 1473 1477 1481 1484 1486 1488 1490 1492 1494 1495 1496 1498 1499 1500 1501 1503 1504 1505 1507 1508 1509 1510 1511 1511 1512 1513 1513 1513 1513 1512
1470 1471 1468 1467 1472 1483 1465 1459 1460 1463 1464 1464 1466 1469 1472 1476 1481 1484 1486 1488 1490 1491 1493 1494 1495 1497 1498 1499 1501 1502 1503 1504 1505 1506 1507 1508 1509 1510 1510 1511 1510 1511 1511 1510
1468 1470 1468 1467 1470 1467 1464 1462 1462 1465 1467 1466 1467 1470 1473 1477 1480 1484 1486 1487 1489 1491 1492 1493 1494 1496 1497 1498 1499 1500 1502 1503 1504 1505 1506 1506 1507 1508 1508 1509 1508 1508 1509 1508
1467 1468 1468 1467 1472 1473 1463 1461 1463 1465 1469 1467 1468 1470 1473 1476 1475 1479 1484 1486 1488 1490 1491 1492 1493 1495 1496 1497 1498 1499 1500 1501 1502 1503 1504 1505 1505 1506 1506 1506 1506 1507 1506 1506
1467 1469 1467 1466 1468 1462 1461 1462 1464 1472 1469 1468 1469 1471 1473 1474 1475 1480 1483 1485 1487 1489 1490 1491 1492 1494 1495 1496 1497 1498 1499 1500 1501 1501 1502 1503 1504 1505 1505 1505 1505 1505 1505 1505
1462 1463 1466 1464 1468 1468 1463 1462 1464 1468 1469 1469 1470 1472 1474 1477 1479 1481 1483 1485 1487 1488 1489 1491 1492 1493 1494 1495 1496 1497 1498 1499 1500 1500 1501 1502 1503 1504 1504 1504 1504 1504 1504 1504
1461 1460 1458 1461 1464 1465 1465 1466 1468 1469 1470 1470 1472 1473 1475 1477 1479 1481 1483 1485 1487 1488 1489 1490 1492 1493 1493 1495 1496 1497 1497 1498 1499 1500 1500 1501 1501 1502 1503 1503 1503 1503 1503 1503
1462 1465 1463 1463 1463 1465 1467 1468 1469 1470 1470 1471 1472 1473 1475 1476 1478 1480 1482 1484 1486 1488 1489 1490 1492 1492 1493 1495 1496 1497 1497 1497 1498 1499 1499 1500 1501 1501 1501 1501 1501 1501 1502 1501
1462 1464 1462 1464 1464 1466 1467 1468 1469 1469 1470 1470 1472 1473 1474 1476 1478 1480 1481 1483 1485 1487 1489 1490 1491 1492 1493 1494 1495 1496 1496 1497 1497 1498 1499 1499 1500 1500 1500 1500 1500 1500 1500 1499
1462 1463 1462 1461 1464 1465 1466 1468 1469 1469 1470 1471 1471 1473 1475 1476 1477 1479 1481 1483 1485 1486 1488 1489 1491 1492 1493 1494 1494 1495 1496 1496 1497 1497 1498 1498 1499 1499 1499 1499 1498 1497 1497 1496